Overview Statistics Trail Chart Weather Telemetry Raw packets
 

This is the latest recevied weather packets stored in our database for station/object s59zo-6. If no packets are shown the sender has not sent any weather packets the latest 10 day(s).

<< 72 73 74 75 76 77 78 >>
Time Temp. Humidity Pressure Rain* Wind** Luminosity Snow
1788086704 26.11° C 52% 1019.8 hPa 0 mm - - -
1788086404 26.11° C 53% 1019.9 hPa 0 mm - - -
1788086104 25.56° C 54% 1020 hPa 0 mm - - -
1788085804 25.56° C 54% 1020.1 hPa 0 mm - - -
1788085505 25.56° C 55% 1020.1 hPa 0 mm - - -
1788085205 25.56° C 56% 1020.1 hPa 0 mm - - -
1788084905 25.56° C 57% 1020.2 hPa 0 mm - - -
1788084605 25° C 57% 1020.3 hPa 0 mm - - -
1788084304 24.44° C 59% 1020.2 hPa 0 mm - - -
1788084005 24.44° C 59% 1020.3 hPa 0 mm - - -
1788083704 24.44° C 60% 1020.3 hPa 0 mm - - -
1788083405 23.89° C 59% 1020.4 hPa 0 mm - - -
1788083104 24.44° C 60% 1020.5 hPa 0 mm - - -
1788082806 23.89° C 61% 1020.5 hPa 0 mm - - -
1788082504 23.89° C 61% 1020.5 hPa 0 mm - - -
1788082204 23.33° C 62% 1020.5 hPa 0 mm - - -
1788081904 23.33° C 62% 1020.7 hPa 0 mm - - -
1788081613 22.78° C 63% 1020.5 hPa 0 mm - - -
1788081304 22.78° C 64% 1020.8 hPa 0 mm - - -
1788081005 22.78° C 64% 1020.8 hPa 0 mm - - -
1788080705 22.78° C 65% 1020.7 hPa 0 mm - - -
1788080404 22.22° C 69% 1020.6 hPa 0 mm - - -
1788080105 22.22° C 69% 1020.7 hPa 0 mm - - -
1788079804 22.22° C 70% 1020.8 hPa 0 mm - - -
1788079505 22.22° C 70% 1020.7 hPa 0 mm - - -

* Rain latest hour (hover to see other rain measurements)
** Current wind speed in m/s (hover to see current wind gust speed)